COSMOS 1250

Satellite information

Favourite Embed

Satellite Type and Status

PAYLOADIN ORBIT

Key statistics

Satellite COSMOS 1250 at a glance.

Uptime

16359

Days in orbit

Revolutions

≈ 12.6

Per day

Orbit

LEO

Low Earth Orbit

Inclination

74.0

Latest

Satellite identification and parameters

Extended collection of information and parameters for COSMOS 1250.

Object identification

Identified? True

Debris? False

Object name: COSMOS 1250

International designator: 1981-022A

Object number (NORAD): 12320

Object ID (CCSDS): 12320

Country: COMMONWEALTH OF INDEPENDENT STATES (CIS)

Current information (Y/N): Y

RCS size: MEDIUM

Orbital parameters

Period: 114.442 minutes

Inclination: 74.0287 deg

SMA: 7808.197 km

Apoapsis: 1471.102 km

Periapsis: 1389.023 km

RAAN: 234.0189 deg

Eccentricy: 0.00525594

Argument of periapsis: 331.6955 deg

Mean anomaly: 100.2322 deg

Mean motion: 12.58277967 rev/day

Mean motion (dot): 0.00000004 rev/day2

B* drag term: 0.00011870806 1/REarth

Two-line elements (TLE)

Creation date: Dec. 19, 2025, 2:08 a.m.

Reference frame: TEME

Reference center: EARTH

Epoch: Dec. 18, 2025, 8:22 p.m. UTC

TLE line 0: 0 COSMOS 1250

TLE line 1: 1 12320U 81022A 25352.84869432 .00000004 00000-0 11871-3 0 9997

TLE line 2: 2 12320 74.0287 234.0189 0052559 331.6955 100.2322 12.58277967 57223

Live tracking on map

Real-time ground track for satellite COSMOS 1250.

In-orbit conjunctions

There are no conjunctions computed for COSMOS 1250, at the moment. Check back to stay up to date, as we update our databases every day.

Go to all conjunctions

Associated space launch

Military communications satellites

COSMOS 1250 was lifted into orbit during the mission ‘Kosmos-3M | Strela-1M 209-216’, on board a Kosmos-3M space rocket.

The launch took place on March 6, 1981, 11:31 a.m. from 132/2.

For more information about the launch, click the button.

Launch to space Kosmos-3M | Strela-1M 209-216
Kosmos-3M | Strela-1M 209-216

Agency: N/A

Status: Launch Successful

Launch date: March 6, 1981, 11:31 a.m. UTC

Rocket: Kosmos-3M

Launch pad: 132/2

Location: Plesetsk Cosmodrome, Russian Federation

...

Latest news about this satellite

There are no fresh news available about this satellite. Check back as we update our databases every day.


Newsletter sign-up

Weekly statistics, charts and insights to help you stay on top of the space industry.